Zurück zum Katalog

DELTA 1 DEB

AktivSSO
NORAD 35535·DEBRIS·🇺🇸 United States

Gestartet Jun 12, 1975 von Vandenberg Space Force Base

Loading…

Nächste Überflüge (nächste 24 Stunden)

TLE

AktuellSource: Space-Track

Epoche: Sep 13, 2026, 04:34 UTC

1 35535U 75052LH  26256.19056858  .00000003  00000-0  40317-4 0  9995
2 35535  98.8386 238.2112 0095348  37.9252 322.8567 13.79353281178013

Verfolge DELTA 1 DEB in Echtzeit mit AllMySat

Download on the App Store